W4DHW-4 Weather Reports


Display with metric or nautical units.
time (UTC)temp
F
wind
direction
speed
MPH
gust
MPH
rain 1hr
in
rain 24hr
in
rain mn
in
humidity
%
barometer
mb
20260510093039 46 278 0.0 0.0 0.00 0.00 0.00 96 1014.3
20260510092536 46 282 0.0 0.0 0.00 0.00 0.00 96 1014.2
20260510092035 45 287 0.0 0.0 0.00 0.00 0.00 96 1014.4
20260510091532 46 274 0.0 0.0 0.00 0.00 0.00 95 1014.2
20260510091028 46 288 0.0 0.0 0.00 0.00 0.00 95 1014.1
20260510090526 46 285 0.0 1.0 0.00 0.00 0.00 95 1013.9
20260510090021 46 283 1.0 1.0 0.00 0.00 0.00 95 1013.9
20260510085521 47 294 1.0 1.0 0.00 0.00 0.00 95 1014.1
20260510085017 47 298 2.0 2.0 0.00 0.00 0.00 96 1014.0
20260510084514 47 285 0.0 1.0 0.00 0.00 0.00 96 1013.9
20260510084011 46 296 2.0 2.0 0.00 0.00 0.00 96 1013.8
20260510083508 47 271 0.0 0.0 0.00 0.00 0.00 96 1013.9
20260510083003 47 297 1.0 2.0 0.00 0.00 0.00 96 1013.7
20260510082501 47 284 1.0 2.0 0.00 0.00 0.00 96 1013.7
20260510082001 47 287 1.0 2.0 0.00 0.00 0.00 96 1013.8
20260510081456 47 297 1.0 1.0 0.00 0.00 0.00 96 1013.7
20260510080953 47 298 2.0 2.0 0.00 0.00 0.00 96 1013.8
20260510080451 47 305 3.0 3.0 0.00 0.00 0.00 96 1013.8
20260510075948 47 286 2.0 3.0 0.00 0.00 0.00 96 1013.8
20260510075446 47 312 2.0 2.0 0.00 0.00 0.00 96 1013.6
20260510074943 47 309 1.0 1.0 0.00 0.00 0.00 96 1013.4
20260510074440 47 295 2.0 2.0 0.00 0.00 0.00 96 1013.6
20260510073936 47 294 1.0 1.0 0.00 0.00 0.00 96 1013.6
20260510073432 47 288 0.0 1.0 0.00 0.00 0.00 96 1013.4
20260510072928 47 275 0.0 0.0 0.00 0.00 0.00 96 1013.5
20260510072426 47 269 0.0 0.0 0.00 0.00 0.00 95 1013.4
20260510071920 48 301 1.0 2.0 0.00 0.00 0.00 95 1013.3
20260510071418 48 296 2.0 2.0 0.00 0.00 0.00 95 1013.3
20260510070916 48 298 2.0 2.0 0.00 0.00 0.00 95 1013.3
20260510070413 48 311 1.0 2.0 0.00 0.00 0.00 95 1013.3
20260510065908 48 293 2.0 2.0 0.00 0.00 0.00 94 1013.1
20260510065404 48 288 1.0 1.0 0.00 0.00 0.00 94 1013.3
20260510064901 48 261 0.0 0.0 0.00 0.00 0.00 94 1013.1
20260510064359 48 260 0.0 0.0 0.00 0.00 0.00 94 1013.2
20260510063855 49 307 0.0 0.0 0.00 0.00 0.00 94 1013.0
20260510063352 49 272 0.0 0.0 0.00 0.00 0.00 94 1012.9
20260510062849 49 292 1.0 1.0 0.00 0.00 0.00 94 1013.3
20260510062349 49 277 0.0 0.0 0.00 0.00 0.00 94 1013.2
20260510061845 49 278 0.0 1.0 0.00 0.00 0.00 94 1013.2
20260510061341 49 282 0.0 1.0 0.00 0.00 0.00 93 1013.2
20260510060837 49 294 1.0 1.0 0.00 0.00 0.00 93 1013.1
20260510060335 49 293 0.0 1.0 0.00 0.00 0.00 93 1013.0
20260510055832 49 281 0.0 1.0 0.00 0.00 0.00 93 1013.0
20260510055330 50 280 0.0 0.0 0.00 0.00 0.00 92 1013.0
20260510054825 50 269 0.0 0.0 0.00 0.00 0.00 92 1013.1
20260510054321 50 268 0.0 0.0 0.00 0.00 0.00 92 1013.3
20260510053816 50 286 1.0 1.0 0.00 0.00 0.00 92 1013.3
20260510053312 51 320 2.0 2.0 0.00 0.00 0.00 92 1013.5
20260510052808 51 303 2.0 2.0 0.00 0.00 0.00 92 1013.1
20260510052306 51 297 3.0 3.0 0.00 0.00 0.00 92 1013.3
20260510051800 51 296 3.0 3.0 0.00 0.00 0.00 93 1013.0
20260510051257 51 312 2.0 2.0 0.00 0.00 0.00 92 1013.1
20260510050754 51 321 2.0 2.0 0.00 0.00 0.00 93 1013.1
20260510050251 51 275 0.0 0.0 0.00 0.00 0.00 92 1013.1
20260510045747 51 232 0.0 1.0 0.00 0.00 0.00 92 1013.3
20260510045244 51 302 0.0 1.0 0.00 0.00 0.00 92 1013.1
20260510044740 51 314 2.0 2.0 0.00 0.00 0.00 92 1012.9
20260510044239 52 303 3.0 3.0 0.00 0.00 0.00 91 1013.2
20260510043733 52 300 3.0 3.0 0.00 0.00 0.00 92 1013.0
20260510043231 51 282 0.0 1.0 0.00 0.00 0.00 92 1013.1
20260510042729 52 266 0.0 0.0 0.00 0.00 0.00 91 1013.1
20260510042224 52 269 0.0 0.0 0.00 0.00 0.00 91 1013.3
20260510041721 52 270 0.0 1.0 0.00 0.00 0.00 91 1013.1
20260510041218 52 271 0.0 0.0 0.00 0.00 0.00 91 1013.1
20260510040715 52 306 1.0 1.0 0.00 0.00 0.00 90 1013.1
20260510040212 53 287 1.0 1.0 0.00 0.00 0.00 89 1013.3
20260510035707 53 314 1.0 1.0 0.00 0.00 0.00 89 1013.3
20260510035203 53 299 1.0 1.0 0.00 0.00 0.00 88 1013.5
20260510034659 54 294 1.0 1.0 0.00 0.00 0.00 87 1013.4
20260510034156 54 254 0.0 1.0 0.00 0.00 0.00 86 1013.2
20260510033652 55 293 1.0 1.0 0.00 0.00 0.00 85 1013.0
20260510033150 56 304 3.0 3.0 0.00 0.00 0.00 83 1013.1
20260510032647 55 300 3.0 3.0 0.00 0.00 0.00 84 1013.1
20260510032142 55 289 0.0 1.0 0.00 0.00 0.00 86 1013.0
20260510031637 54 231 2.0 2.0 0.00 0.00 0.00 88 1013.2
20260510031135 55 285 1.0 2.0 0.00 0.00 0.00 87 1013.0
20260510030629 55 299 1.0 1.0 0.00 0.00 0.00 85 1013.1
20260510030127 55 273 0.0 1.0 0.00 0.00 0.00 86 1013.0
20260510025624 55 288 0.0 0.0 0.00 0.00 0.00 86 1012.9
20260510025121 56 289 0.0 1.0 0.00 0.00 0.00 84 1012.9
20260510024618 56 271 0.0 0.0 0.00 0.00 0.00 83 1012.6
20260510024114 56 290 1.0 1.0 0.00 0.00 0.00 86 1012.8
20260510023610 56 270 0.0 0.0 0.00 0.00 0.00 86 1012.9
20260510023108 56 274 0.0 0.0 0.00 0.00 0.00 86 1012.5
20260510022607 57 274 0.0 0.0 0.00 0.00 0.00 86 1012.6
20260510022102 57 289 0.0 1.0 0.00 0.00 0.00 86 1012.7
20260510021558 58 277 0.0 0.0 0.00 0.00 0.00 84 1012.5
20260510021056 58 270 0.0 0.0 0.00 0.00 0.00 84 1012.4
20260510020549 58 289 2.0 2.0 0.00 0.00 0.00 84 1012.0
20260510020046 58 272 0.0 0.0 0.00 0.00 0.00 85 1011.9
20260510015541 58 256 0.0 0.0 0.00 0.00 0.00 84 1011.9
20260510015038 59 253 0.0 0.0 0.00 0.00 0.00 84 1011.7
20260510014534 59 270 0.0 0.0 0.00 0.00 0.00 82 1011.5
20260510014031 59 275 1.0 1.0 0.00 0.00 0.00 82 1011.5
20260510013526 60 295 1.0 1.0 0.00 0.00 0.00 82 1011.4
20260510013022 60 291 1.0 1.0 0.00 0.00 0.00 83 1011.3
20260510012516 60 259 0.0 0.0 0.00 0.00 0.00 82 1011.4
20260510012012 61 78 1.0 2.0 0.00 0.00 0.00 82 1011.2
20260510011508 62 202 0.0 1.0 0.00 0.00 0.00 78 1011.1
20260510011003 63 204 0.0 1.0 0.00 0.00 0.00 72 1010.8
20260510010501 63 260 0.0 1.0 0.00 0.00 0.00 70 1010.8
20260510005957 64 257 0.0 1.0 0.00 0.00 0.00 72 1011.0
20260510005453 64 258 1.0 1.0 0.00 0.00 0.00 73 1011.0
20260510004951 64 278 0.0 0.0 0.00 0.00 0.00 74 1010.8
20260510004448 64 227 1.0 2.0 0.00 0.00 0.00 73 1010.7
20260510003946 64 38 1.0 2.0 0.00 0.00 0.00 73 1010.5
20260510003443 66 83 2.0 2.0 0.00 0.00 0.00 64 1010.5
20260510002943 68 283 0.0 0.0 0.00 0.00 0.00 54 1010.3
20260510002439 68 272 1.0 1.0 0.00 0.00 0.00 55 1010.3
20260510001936 69 263 2.0 2.0 0.00 0.00 0.00 52 1010.2
20260510001433 68 260 3.0 3.0 0.00 0.00 0.00 51 1010.0
20260510000931 70 260 1.0 1.0 0.00 0.00 0.00 57 1010.1
20260510000426 71 259 3.0 3.0 0.00 0.00 0.00 49 1010.0
20260509235923 71 260 1.0 2.0 0.00 0.00 0.00 50 1009.8
20260509235420 72 265 1.0 1.0 0.00 0.00 0.00 55 1009.9
20260509234916 72 263 0.0 0.0 0.00 0.00 0.00 57 1009.8
20260509234413 74 232 1.0 1.0 0.00 0.00 0.00 54 1009.6
20260509233911 74 271 0.0 0.0 0.00 0.00 0.00 50 1009.7
20260509233408 74 265 0.0 0.0 0.00 0.00 0.00 53 1009.5
20260509232904 73 264 0.0 0.0 0.00 0.00 0.00 54 1009.7
20260509232402 74 282 0.0 0.0 0.00 0.00 0.00 53 1009.5
20260509231857 74 270 0.0 0.0 0.00 0.00 0.00 53 1009.5
20260509231355 75 253 2.0 2.0 0.00 0.00 0.00 53 1009.6
20260509230853 74 266 1.0 2.0 0.00 0.00 0.00 51 1009.4
20260509230349 74 227 2.0 2.0 0.00 0.00 0.00 53 1009.4
20260509225844 75 261 0.0 1.0 0.00 0.00 0.00 51 1009.6
20260509225342 75 273 1.0 1.0 0.00 0.00 0.00 51 1009.5
20260509224837 73 269 1.0 2.0 0.00 0.00 0.00 54 1009.6
20260509224333 73 268 2.0 2.0 0.00 0.00 0.00 54 1009.5
20260509223831 73 269 5.0 6.0 0.00 0.00 0.00 53 1009.5
20260509223327 73 260 4.0 5.0 0.00 0.00 0.00 53 1009.5
20260509222825 73 253 3.0 3.0 0.00 0.00 0.00 53 1009.6
20260509222320 73 242 5.0 7.0 0.00 0.00 0.00 54 1009.7
20260509221816 73 195 1.0 3.0 0.00 0.00 0.00 53 1009.5
20260509221314 74 186 4.0 5.0 0.00 0.00 0.00 52 1009.7
20260509220814 74 213 3.0 5.0 0.00 0.00 0.00 52 1009.5
20260509220310 74 234 2.0 2.0 0.00 0.00 0.00 53 1009.5
20260509215806 74 160 5.0 6.0 0.00 0.00 0.00 53 1009.5
20260509215305 73 177 1.0 1.0 0.00 0.00 0.00 54 1009.5
20260509214759 74 217 3.0 3.0 0.00 0.00 0.00 53 1009.3
20260509214257 73 254 2.0 2.0 0.00 0.00 0.00 54 1009.4
20260509213753 74 193 3.0 5.0 0.00 0.00 0.00 52 1009.3
20260509213249 73 214 1.0 2.0 0.00 0.00 0.00 52 1009.5
20260509212747 72 261 2.0 3.0 0.00 0.00 0.00 53 1009.4
20260509212244 72 187 4.0 5.0 0.00 0.00 0.00 53 1009.4
20260509211739 72 194 4.0 5.0 0.00 0.00 0.00 53 1009.4
20260509211236 72 176 4.0 5.0 0.00 0.00 0.00 54 1009.3
20260509210732 72 165 5.0 6.0 0.00 0.00 0.00 53 1009.5
20260509210231 74 170 5.0 6.0 0.00 0.00 0.00 51 1009.2
20260509205730 74 266 1.0 1.0 0.00 0.00 0.00 52 1009.2
20260509205230 73 254 2.0 3.0 0.00 0.00 0.00 52 1009.4
20260509204726 73 260 0.0 1.0 0.00 0.00 0.00 53 1009.3
20260509204223 72 193 4.0 5.0 0.00 0.00 0.00 53 1009.4
20260509203718 72 172 4.0 6.0 0.00 0.00 0.00 53 1009.2
20260509203217 72 203 1.0 2.0 0.00 0.00 0.00 53 1009.2
20260509202712 73 144 4.0 5.0 0.00 0.00 0.00 54 1009.0
20260509202207 72 178 4.0 6.0 0.00 0.00 0.00 54 1009.3
20260509201703 72 278 1.0 2.0 0.00 0.00 0.00 53 1009.3
20260509201200 72 267 1.0 1.0 0.00 0.00 0.00 54 1009.3
20260509200656 72 268 2.0 2.0 0.00 0.00 0.00 53 1009.1
20260509200151 72 240 1.0 2.0 0.00 0.00 0.00 52 1009.0
20260509195648 71 224 3.0 3.0 0.00 0.00 0.00 52 1009.1
20260509195143 71 195 4.0 6.0 0.00 0.00 0.00 52 1009.3
20260509194642 71 217 2.0 3.0 0.00 0.00 0.00 52 1009.2
20260509194140 73 232 5.0 7.0 0.00 0.00 0.00 52 1009.4
20260509193635 72 145 4.0 5.0 0.00 0.00 0.00 53 1009.1
20260509193131 72 171 10.0 11.0 0.00 0.00 0.00 53 1009.3
20260509192628 72 216 6.0 7.0 0.00 0.00 0.00 52 1009.4
20260509192123 72 180 5.0 7.0 0.00 0.00 0.00 51 1009.4
20260509191623 72 254 3.0 3.0 0.00 0.00 0.00 50 1009.5
20260509191120 72 256 5.0 7.0 0.00 0.00 0.00 51 1009.6
20260509190617 72 180 1.0 1.0 0.00 0.00 0.00 51 1009.6
20260509190114 73 66 2.0 2.0 0.00 0.00 0.00 50 1009.5
20260509185612 73 145 5.0 7.0 0.00 0.00 0.00 51 1009.6
20260509185108 73 134 2.0 3.0 0.00 0.00 0.00 50 1009.8
20260509184606 72 221 1.0 1.0 0.00 0.00 0.00 51 1009.9
20260509184102 71 224 5.0 6.0 0.00 0.00 0.00 53 1010.1
20260509183558 70 246 5.0 6.0 0.00 0.00 0.00 53 1010.1
20260509183054 71 228 1.0 2.0 0.00 0.00 0.00 53 1010.2
20260509182550 70 274 0.0 0.0 0.00 0.00 0.00 54 1010.0
20260509182047 70 259 3.0 3.0 0.00 0.00 0.00 55 1010.3
20260509181546 70 256 3.0 5.0 0.00 0.00 0.00 55 1010.2
20260509181042 69 254 3.0 3.0 0.00 0.00 0.00 56 1010.5
20260509180538 69 237 3.0 3.0 0.00 0.00 0.00 56 1010.4
20260509180036 69 240 5.0 5.0 0.00 0.00 0.00 56 1010.3
20260509175531 69 233 1.0 1.0 0.00 0.00 0.00 57 1010.4
20260509175028 69 277 2.0 2.0 0.00 0.00 0.00 57 1010.2
20260509174525 69 175 1.0 2.0 0.00 0.00 0.00 56 1010.3
20260509174020 69 144 4.0 5.0 0.00 0.00 0.00 57 1010.2
20260509173514 69 252 3.0 3.0 0.00 0.00 0.00 57 1010.4
20260509173011 69 159 8.0 9.0 0.00 0.00 0.00 57 1010.7
20260509172508 70 261 7.0 10.0 0.00 0.00 0.00 55 1010.7
20260509172003 70 220 7.0 8.0 0.00 0.00 0.00 56 1010.6
20260509171500 70 248 12.0 16.0 0.00 0.00 0.00 53 1010.8
20260509170956 70 251 9.0 10.0 0.00 0.00 0.00 59 1011.0
20260509170452 68 174 7.0 8.0 0.00 0.00 0.00 59 1011.0
20260509165948 68 175 5.0 7.0 0.00 0.00 0.00 59 1011.1
20260509165447 68 182 8.0 10.0 0.00 0.00 0.00 59 1011.1
20260509164943 69 245 2.0 3.0 0.00 0.00 0.00 59 1011.4
20260509164439 68 213 5.0 8.0 0.00 0.00 0.00 59 1011.3
20260509163935 68 213 3.0 5.0 0.00 0.00 0.00 60 1011.5
20260509163433 67 165 6.0 7.0 0.00 0.00 0.00 59 1011.3
20260509162931 68 205 6.0 8.0 0.00 0.00 0.00 60 1011.4
20260509162431 68 254 4.0 5.0 0.00 0.00 0.00 61 1011.2
20260509161926 68 170 6.0 7.0 0.00 0.00 0.00 61 1011.1
20260509161423 67 219 3.0 3.0 0.00 0.00 0.00 62 1011.0
20260509160918 66 150 5.0 6.0 0.00 0.00 0.00 64 1011.1
20260509160414 66 191 4.0 5.0 0.00 0.00 0.00 64 1011.1
20260509155909 66 161 4.0 5.0 0.00 0.00 0.00 66 1011.2
20260509155406 65 204 3.0 5.0 0.00 0.00 0.00 65 1011.4
20260509154903 65 178 6.0 7.0 0.00 0.00 0.00 65 1011.3
20260509154359 65 183 5.0 6.0 0.00 0.00 0.00 64 1011.4
20260509153856 65 198 3.0 5.0 0.00 0.00 0.00 65 1011.2
20260509153353 65 175 3.0 3.0 0.00 0.00 0.00 65 1011.5
20260509152850 65 231 3.0 5.0 0.00 0.00 0.00 66 1011.3
20260509152346 64 188 5.0 5.0 0.00 0.00 0.00 67 1011.4
20260509151843 64 179 3.0 5.0 0.00 0.00 0.00 66 1011.6
20260509151339 64 222 3.0 3.0 0.00 0.00 0.00 66 1011.5
20260509150838 63 158 3.0 5.0 0.00 0.00 0.00 67 1011.6
20260509150335 63 180 3.0 3.0 0.00 0.00 0.00 68 1011.6
20260509145832 62 141 1.0 2.0 0.00 0.00 0.00 68 1011.7
20260509145327 62 130 5.0 6.0 0.00 0.00 0.00 67 1011.8
20260509144823 62 133 3.0 5.0 0.00 0.00 0.00 68 1011.9
20260509144320 62 190 2.0 2.0 0.00 0.00 0.00 68 1011.8
20260509143818 61 225 2.0 2.0 0.00 0.00 0.00 68 1011.8
20260509143315 60 124 0.0 1.0 0.00 0.00 0.00 69 1011.9
20260509142811 60 165 1.0 2.0 0.00 0.00 0.00 68 1011.7
20260509142307 60 165 1.0 2.0 0.00 0.00 0.00 68 1011.8
20260509141803 60 165 1.0 2.0 0.00 0.00 0.00 68 1011.9
20260509141300 59 234 0.0 1.0 0.00 0.00 0.00 69 1011.7
20260509140756 58 116 2.0 2.0 0.00 0.00 0.00 70 1011.4
20260509140254 57 86 2.0 2.0 0.00 0.00 0.00 71 1011.7
20260509135752 57 202 1.0 2.0 0.00 0.00 0.00 73 1011.8
20260509135249 57 206 1.0 1.0 0.00 0.00 0.00 73 1011.8
20260509134746 56 269 0.0 0.0 0.00 0.00 0.00 74 1012.3
20260509134243 56 232 1.0 1.0 0.00 0.00 0.00 74 1012.4
20260509133740 56 255 0.0 1.0 0.00 0.00 0.00 73 1012.4
20260509133237 56 261 0.0 0.0 0.00 0.00 0.00 72 1012.5
20260509132736 55 263 0.0 0.0 0.00 0.00 0.00 73 1012.6
20260509132234 53 261 0.0 0.0 0.00 0.00 0.00 77 1012.7
20260509131730 53 259 0.0 0.0 0.00 0.00 0.00 77 1012.6
20260509131227 53 257 0.0 1.0 0.00 0.00 0.00 78 1012.7
20260509130723 52 274 0.0 1.0 0.00 0.00 0.00 79 1012.7
20260509130219 51 285 0.0 0.0 0.00 0.00 0.00 81 1012.5
20260509125715 50 270 0.0 0.0 0.00 0.00 0.00 82 1012.5
20260509125213 50 283 0.0 0.0 0.00 0.00 0.00 82 1012.6
20260509124709 51 293 0.0 1.0 0.00 0.00 0.00 82 1012.8
20260509124206 50 291 0.0 0.0 0.00 0.00 0.00 82 1012.8
20260509123704 49 291 0.0 1.0 0.00 0.00 0.00 82 1012.9
20260509123201 49 295 0.0 0.0 0.00 0.00 0.00 85 1013.2
20260509122656 49 310 0.0 0.0 0.00 0.00 0.00 85 1013.1
20260509122153 48 311 0.0 0.0 0.00 0.00 0.00 86 1013.1
20260509121650 48 255 1.0 1.0 0.00 0.00 0.00 86 1012.9
20260509121148 48 72 1.0 2.0 0.00 0.00 0.00 86 1013.2
20260509120646 48 279 0.0 0.0 0.00 0.00 0.00 87 1013.1
20260509120143 47 268 0.0 0.0 0.00 0.00 0.00 88 1013.3
20260509115641 47 254 0.0 0.0 0.00 0.00 0.00 89 1013.0
20260509115138 46 235 0.0 0.0 0.00 0.00 0.00 90 1013.2
20260509114636 46 235 1.0 1.0 0.00 0.00 0.00 91 1013.1
20260509114135 45 282 0.0 0.0 0.00 0.00 0.00 91 1012.9
20260509113633 45 42 0.0 1.0 0.00 0.00 0.00 91 1012.7
20260509113130 45 194 1.0 1.0 0.00 0.00 0.00 91 1012.9
20260509112626 45 211 1.0 1.0 0.00 0.00 0.00 91 1012.8
20260509112124 45 250 0.0 0.0 0.00 0.00 0.00 92 1013.0
20260509111620 45 279 0.0 0.0 0.00 0.00 0.00 92 1013.0
20260509111117 44 259 0.0 0.0 0.00 0.00 0.00 92 1012.7
20260509110614 44 298 2.0 2.0 0.00 0.00 0.00 92 1012.8
20260509110112 44 294 1.0 1.0 0.00 0.00 0.00 92 1012.6
20260509105610 44 296 2.0 2.0 0.00 0.00 0.00 92 1012.9
20260509105107 44 288 1.0 1.0 0.00 0.00 0.00 92 1012.8
20260509104603 44 274 0.0 0.0 0.00 0.00 0.00 92 1012.6
20260509104100 44 270 0.0 0.0 0.00 0.00 0.00 92 1012.6
20260509103558 43 273 0.0 0.0 0.00 0.00 0.00 92 1012.6
20260509103056 44 291 1.0 1.0 0.00 0.00 0.00 92 1012.5
20260509102553 44 291 1.0 1.0 0.00 0.00 0.00 92 1012.4
20260509102050 44 278 0.0 1.0 0.00 0.00 0.00 92 1012.6
20260509101546 44 316 1.0 1.0 0.00 0.00 0.00 92 1012.6
20260509101043 44 285 1.0 1.0 0.00 0.00 0.00 91 1012.7
20260509100540 44 273 0.0 0.0 0.00 0.00 0.00 91 1012.5
20260509100038 44 293 1.0 1.0 0.00 0.00 0.00 91 1012.6
20260509095534 44 279 0.0 0.0 0.00 0.00 0.00 91 1012.6
20260509095032 44 284 0.0 1.0 0.00 0.00 0.00 91 1012.6
20260509094528 44 304 1.0 1.0 0.00 0.00 0.00 91 1012.6
20260509094025 44 301 1.0 1.0 0.00 0.00 0.00 91 1012.6